����������;��������(kWh)
2016-10-03 00:00;84,65
2016-10-03 00:15;86,25
2016-10-03 00:30;87,3
2016-10-03 00:45;83,35
2016-10-03 01:00;80,15
2016-10-03 01:15;79,3
2016-10-03 01:30;79,4
2016-10-03 01:45;81,25
2016-10-03 02:00;83,15
2016-10-03 02:15;85,05
2016-10-03 02:30;89,3
2016-10-03 02:45;84,2
2016-10-03 03:00;78,3
2016-10-03 03:15;78,7
2016-10-03 03:30;81,45
2016-10-03 03:45;79,35
2016-10-03 04:00;76,6
2016-10-03 04:15;77,9
2016-10-03 04:30;80
2016-10-03 04:45;78,5
2016-10-03 05:00;77,75
2016-10-03 05:15;78,45
2016-10-03 05:30;80,8
2016-10-03 05:45;81,5
2016-10-03 06:00;83,8
2016-10-03 06:15;86,2
2016-10-03 06:30;89,95
2016-10-03 06:45;89,65
2016-10-03 07:00;86
2016-10-03 07:15;84,75
2016-10-03 07:30;86,9
2016-10-03 07:45;133,9
2016-10-03 08:00;102,9
2016-10-03 08:15;102,55
2016-10-03 08:30;111,3
2016-10-03 08:45;121,3
2016-10-03 09:00;125,5
2016-10-03 09:15;139,9
2016-10-03 09:30;145,95
2016-10-03 09:45;153,55
2016-10-03 10:00;154,5
2016-10-03 10:15;162,1
2016-10-03 10:30;165,4
2016-10-03 10:45;213,6
2016-10-03 11:00;236,05
2016-10-03 11:15;223,55
2016-10-03 11:30;211,85
2016-10-03 11:45;207,95
2016-10-03 12:00;215,5
2016-10-03 12:15;218,4
2016-10-03 12:30;202,4
2016-10-03 12:45;210
2016-10-03 13:00;205,6
2016-10-03 13:15;206,9
2016-10-03 13:30;225,2
2016-10-03 13:45;217,6
2016-10-03 14:00;220,8
2016-10-03 14:15;216,55
2016-10-03 14:30;218,55
2016-10-03 14:45;210
2016-10-03 15:00;210
2016-10-03 15:15;204,25
2016-10-03 15:30;201,8
2016-10-03 15:45;194,9
2016-10-03 16:00;196,6
2016-10-03 16:15;190,3
2016-10-03 16:30;174,5
2016-10-03 16:45;173,65
2016-10-03 17:00;168,5
2016-10-03 17:15;156,4
2016-10-03 17:30;152,3
2016-10-03 17:45;156,15
2016-10-03 18:00;151,15
2016-10-03 18:15;146
2016-10-03 18:30;139,95
2016-10-03 18:45;141,7
2016-10-03 19:00;137,95
2016-10-03 19:15;134,4
2016-10-03 19:30;134,85
2016-10-03 19:45;131,6
2016-10-03 20:00;121,8
2016-10-03 20:15;126,45
2016-10-03 20:30;124,1
2016-10-03 20:45;123,8
2016-10-03 21:00;126,85
2016-10-03 21:15;118,2
2016-10-03 21:30;115,5
2016-10-03 21:45;111,75
2016-10-03 22:00;106,6
2016-10-03 22:15;104,5
2016-10-03 22:30;100,1
2016-10-03 22:45;97,8
2016-10-03 23:00;98,2
2016-10-03 23:15;94,35
2016-10-03 23:30;91,25
2016-10-03 23:45;92
2016-10-04 00:00;90,6
2016-10-04 00:15;93,2
2016-10-04 00:30;92,05
2016-10-04 00:45;90,35
2016-10-04 01:00;90,3
2016-10-04 01:15;91,75
2016-10-04 01:30;94,95
2016-10-04 01:45;95,3
2016-10-04 02:00;96,4
2016-10-04 02:15;96,45
2016-10-04 02:30;88,55
2016-10-04 02:45;83,5
2016-10-04 03:00;83,25
2016-10-04 03:15;82,45
2016-10-04 03:30;82,25
2016-10-04 03:45;83,1
2016-10-04 04:00;82,3
2016-10-04 04:15;82,85
2016-10-04 04:30;82,1
2016-10-04 04:45;80,7
2016-10-04 05:00;82
2016-10-04 05:15;83,05
2016-10-04 05:30;81,4
2016-10-04 05:45;84,6
2016-10-04 06:00;92,45
2016-10-04 06:15;96,3
2016-10-04 06:30;98,65
2016-10-04 06:45;92,95
2016-10-04 07:00;95,25
2016-10-04 07:15;103,85
2016-10-04 07:30;97,1
2016-10-04 07:45;105,5
2016-10-04 08:00;102,1
2016-10-04 08:15;111,4
2016-10-04 08:30;115,4
2016-10-04 08:45;120,9
2016-10-04 09:00;126,05
2016-10-04 09:15;141,1
2016-10-04 09:30;188,25
2016-10-04 09:45;201,7
2016-10-04 10:00;210,4
2016-10-04 10:15;185,9
2016-10-04 10:30;204,65
2016-10-04 10:45;202,05
2016-10-04 11:00;215,5
2016-10-04 11:15;227,95
2016-10-04 11:30;235,95
2016-10-04 11:45;229,8
2016-10-04 12:00;232,15
2016-10-04 12:15;232,7
2016-10-04 12:30;237,85
2016-10-04 12:45;239,2
2016-10-04 13:00;240,95
2016-10-04 13:15;232,05
2016-10-04 13:30;238,75
2016-10-04 13:45;239,25
2016-10-04 14:00;236,7
2016-10-04 14:15;228,2
2016-10-04 14:30;222,45
2016-10-04 14:45;219,65
2016-10-04 15:00;213,9
2016-10-04 15:15;207,9
2016-10-04 15:30;204
2016-10-04 15:45;195,35
2016-10-04 16:00;193,25
2016-10-04 16:15;190,35
2016-10-04 16:30;184,4
2016-10-04 16:45;164,8
2016-10-04 17:00;169
2016-10-04 17:15;155,75
2016-10-04 17:30;149,55
2016-10-04 17:45;143,55
2016-10-04 18:00;142
2016-10-04 18:15;132,45
2016-10-04 18:30;133,15
2016-10-04 18:45;134,65
2016-10-04 19:00;128,6
2016-10-04 19:15;124,95
2016-10-04 19:30;120,7
2016-10-04 19:45;116,1
2016-10-04 20:00;116,6
2016-10-04 20:15;108,1
2016-10-04 20:30;111,2
2016-10-04 20:45;119,7
2016-10-04 21:00;116,2
2016-10-04 21:15;114,9
2016-10-04 21:30;109,15
2016-10-04 21:45;105,1
2016-10-04 22:00;102,15
2016-10-04 22:15;99,8
2016-10-04 22:30;98,15
2016-10-04 22:45;96,35
2016-10-04 23:00;94,5
2016-10-04 23:15;93,85
2016-10-04 23:30;89,45
2016-10-04 23:45;85,75
2016-10-05 00:00;87,5
2016-10-05 00:15;85,2
2016-10-05 00:30;89
2016-10-05 00:45;89,55
2016-10-05 01:00;90,8
2016-10-05 01:15;85,45
2016-10-05 01:30;81,65
2016-10-05 01:45;80
2016-10-05 02:00;80,55
2016-10-05 02:15;80,55
2016-10-05 02:30;79,15
2016-10-05 02:45;78,05
2016-10-05 03:00;79,05
2016-10-05 03:15;80,2
2016-10-05 03:30;79,95
2016-10-05 03:45;78,95
2016-10-05 04:00;79,65
2016-10-05 04:15;79,1
2016-10-05 04:30;78,95
2016-10-05 04:45;78,4
2016-10-05 05:00;79,85
2016-10-05 05:15;81,6
2016-10-05 05:30;81,1
2016-10-05 05:45;84,9
2016-10-05 06:00;91
2016-10-05 06:15;91,45
2016-10-05 06:30;90,6
2016-10-05 06:45;101,05
2016-10-05 07:00;102,65
2016-10-05 07:15;106,25
2016-10-05 07:30;99,4
2016-10-05 07:45;143,6
2016-10-05 08:00;118,05
2016-10-05 08:15;119,3
2016-10-05 08:30;119,45
2016-10-05 08:45;168,25
2016-10-05 09:00;171,05
2016-10-05 09:15;150,45
2016-10-05 09:30;159,8
2016-10-05 09:45;167,85
2016-10-05 10:00;170,4
2016-10-05 10:15;173,9
2016-10-05 10:30;178,25
2016-10-05 10:45;190,85
2016-10-05 11:00;199,05
2016-10-05 11:15;201,85
2016-10-05 11:30;205,3
2016-10-05 11:45;211
2016-10-05 12:00;221,95
2016-10-05 12:15;213,75
2016-10-05 12:30;211,5
2016-10-05 12:45;223,25
2016-10-05 13:00;222,05
2016-10-05 13:15;208,35
2016-10-05 13:30;215,05
2016-10-05 13:45;216,7
2016-10-05 14:00;215,7
2016-10-05 14:15;216,2
2016-10-05 14:30;224,7
2016-10-05 14:45;202,8
2016-10-05 15:00;200,5
2016-10-05 15:15;206,7
2016-10-05 15:30;207,5
2016-10-05 15:45;187,45
2016-10-05 16:00;179,45
2016-10-05 16:15;180
2016-10-05 16:30;169,5
2016-10-05 16:45;163
2016-10-05 17:00;161,3
2016-10-05 17:15;158,4
2016-10-05 17:30;152,15
2016-10-05 17:45;148,35
2016-10-05 18:00;141,6
2016-10-05 18:15;145,5
2016-10-05 18:30;134,15
2016-10-05 18:45;140,15
2016-10-05 19:00;141,3
2016-10-05 19:15;140,05
2016-10-05 19:30;136,85
2016-10-05 19:45;134,35
2016-10-05 20:00;124,35
2016-10-05 20:15;122,3
2016-10-05 20:30;122,2
2016-10-05 20:45;114,15
2016-10-05 21:00;106,45
2016-10-05 21:15;104,55
2016-10-05 21:30;109,4
2016-10-05 21:45;109,85
2016-10-05 22:00;102,95
2016-10-05 22:15;102,6
2016-10-05 22:30;99,05
2016-10-05 22:45;94,4
2016-10-05 23:00;92,8
2016-10-05 23:15;91,2
2016-10-05 23:30;88,9
2016-10-05 23:45;88,4
2016-10-06 00:00;86,4
2016-10-06 00:15;85,2
2016-10-06 00:30;86,1
2016-10-06 00:45;85,3
2016-10-06 01:00;82,4
2016-10-06 01:15;81,15
2016-10-06 01:30;81,75
2016-10-06 01:45;82,4
2016-10-06 02:00;82,2
2016-10-06 02:15;80,55
2016-10-06 02:30;80,8
2016-10-06 02:45;81,25
2016-10-06 03:00;79,7
2016-10-06 03:15;80,6
2016-10-06 03:30;80,25
2016-10-06 03:45;80,5
2016-10-06 04:00;80,8
2016-10-06 04:15;78,3
2016-10-06 04:30;80,5
2016-10-06 04:45;80
2016-10-06 05:00;80,55
2016-10-06 05:15;82,1
2016-10-06 05:30;87,45
2016-10-06 05:45;92,65
2016-10-06 06:00;95,6
2016-10-06 06:15;97,2
2016-10-06 06:30;90,25
2016-10-06 06:45;89,95
2016-10-06 07:00;93,3
2016-10-06 07:15;96,6
2016-10-06 07:30;99,35
2016-10-06 07:45;43,95
2016-10-06 08:00;162,6
2016-10-06 08:15;117,45
2016-10-06 08:30;117,85
2016-10-06 08:45;161,1
2016-10-06 09:00;165,25
2016-10-06 09:15;145,75
2016-10-06 09:30;159,75
2016-10-06 09:45;168
2016-10-06 10:00;160,65
2016-10-06 10:15;164,75
2016-10-06 10:30;179,75
2016-10-06 10:45;190,35
2016-10-06 11:00;182,05
2016-10-06 11:15;184
2016-10-06 11:30;196,15
2016-10-06 11:45;206,85
2016-10-06 12:00;201,55
2016-10-06 12:15;195,15
2016-10-06 12:30;213,4
2016-10-06 12:45;212,95
2016-10-06 13:00;204,15
2016-10-06 13:15;208,4
2016-10-06 13:30;217,95
2016-10-06 13:45;216,65
2016-10-06 14:00;208,3
2016-10-06 14:15;216,95
2016-10-06 14:30;217,2
2016-10-06 14:45;220,25
2016-10-06 15:00;216,1
2016-10-06 15:15;213,05
2016-10-06 15:30;204,3
2016-10-06 15:45;203,05
2016-10-06 16:00;208,3
2016-10-06 16:15;185,2
2016-10-06 16:30;172,3
2016-10-06 16:45;154,15
2016-10-06 17:00;158,65
2016-10-06 17:15;148,55
2016-10-06 17:30;146,95
2016-10-06 17:45;147,9
2016-10-06 18:00;147,75
2016-10-06 18:15;136,35
2016-10-06 18:30;137,1
2016-10-06 18:45;136
2016-10-06 19:00;135,4
2016-10-06 19:15;132,05
2016-10-06 19:30;128,75
2016-10-06 19:45;121,05
2016-10-06 20:00;112,85
2016-10-06 20:15;115,3
2016-10-06 20:30;113,15
2016-10-06 20:45;110,55
2016-10-06 21:00;103,75
2016-10-06 21:15;104,95
2016-10-06 21:30;103,4
2016-10-06 21:45;102,55
2016-10-06 22:00;95,45
2016-10-06 22:15;95,7
2016-10-06 22:30;94,3
2016-10-06 22:45;97,4
2016-10-06 23:00;99
2016-10-06 23:15;97,9
2016-10-06 23:30;99,75
2016-10-06 23:45;97,5
2016-10-07 00:00;90,55
2016-10-07 00:15;89,5
2016-10-07 00:30;87,8
2016-10-07 00:45;85,4
2016-10-07 01:00;82,65
2016-10-07 01:15;83,95
2016-10-07 01:30;80,4
2016-10-07 01:45;79,5
2016-10-07 02:00;81,25
2016-10-07 02:15;79,1
2016-10-07 02:30;79,05
2016-10-07 02:45;78,6
2016-10-07 03:00;80,1
2016-10-07 03:15;79,35
2016-10-07 03:30;78,1
2016-10-07 03:45;79,4
2016-10-07 04:00;77,55
2016-10-07 04:15;76,8
2016-10-07 04:30;78,9
2016-10-07 04:45;77,6
2016-10-07 05:00;77,6
2016-10-07 05:15;78,7
2016-10-07 05:30;80,05
2016-10-07 05:45;80
2016-10-07 06:00;85,25
2016-10-07 06:15;91,75
2016-10-07 06:30;85,9
2016-10-07 06:45;85,75
2016-10-07 07:00;89,4
2016-10-07 07:15;91,3
2016-10-07 07:30;89,1
2016-10-07 07:45;141,65
2016-10-07 08:00;115,3
2016-10-07 08:15;113,5
2016-10-07 08:30;112,2
2016-10-07 08:45;159,85
2016-10-07 09:00;153,1
2016-10-07 09:15;128,45
2016-10-07 09:30;143,45
2016-10-07 09:45;151,6
2016-10-07 10:00;150,85
2016-10-07 10:15;152,55
2016-10-07 10:30;163,7
2016-10-07 10:45;172,3
2016-10-07 11:00;167,95
2016-10-07 11:15;173,2
2016-10-07 11:30;183,55
2016-10-07 11:45;186,55
2016-10-07 12:00;184,5
2016-10-07 12:15;188,85
2016-10-07 12:30;207,7
2016-10-07 12:45;207,9
2016-10-07 13:00;196,75
2016-10-07 13:15;193,85
2016-10-07 13:30;203,1
2016-10-07 13:45;203,9
2016-10-07 14:00;194,8
2016-10-07 14:15;187,5
2016-10-07 14:30;195,55
2016-10-07 14:45;188,65
2016-10-07 15:00;179,65
2016-10-07 15:15;189,05
2016-10-07 15:30;178,6
2016-10-07 15:45;171,45
2016-10-07 16:00;169,5
2016-10-07 16:15;164,85
2016-10-07 16:30;161,4
2016-10-07 16:45;152,85
2016-10-07 17:00;144,85
2016-10-07 17:15;142,7
2016-10-07 17:30;136,55
2016-10-07 17:45;133,4
2016-10-07 18:00;137,8
2016-10-07 18:15;124,95
2016-10-07 18:30;122,25
2016-10-07 18:45;124,15
2016-10-07 19:00;117
2016-10-07 19:15;112,55
2016-10-07 19:30;123,95
2016-10-07 19:45;121,7
2016-10-07 20:00;115,95
2016-10-07 20:15;115
2016-10-07 20:30;112,3
2016-10-07 20:45;110,6
2016-10-07 21:00;106,75
2016-10-07 21:15;100,8
2016-10-07 21:30;100,9
2016-10-07 21:45;102,2
2016-10-07 22:00;97,3
2016-10-07 22:15;92,3
2016-10-07 22:30;91,3
2016-10-07 22:45;90,45
2016-10-07 23:00;91,15
2016-10-07 23:15;91,6
2016-10-07 23:30;90,15
2016-10-07 23:45;88,55
2016-10-08 00:00;86,7
2016-10-08 00:15;88,35
2016-10-08 00:30;87,9
2016-10-08 00:45;93,15
2016-10-08 01:00;91
2016-10-08 01:15;87,95
2016-10-08 01:30;82,75
2016-10-08 01:45;79,15
2016-10-08 02:00;78,4
2016-10-08 02:15;77,5
2016-10-08 02:30;77,45
2016-10-08 02:45;79,05
2016-10-08 03:00;78,05
2016-10-08 03:15;78,45
2016-10-08 03:30;78,95
2016-10-08 03:45;76,65
2016-10-08 04:00;77,95
2016-10-08 04:15;78,85
2016-10-08 04:30;78,3
2016-10-08 04:45;79,5
2016-10-08 05:00;79,5
2016-10-08 05:15;76,5
2016-10-08 05:30;78,15
2016-10-08 05:45;80,55
2016-10-08 06:00;81,85
2016-10-08 06:15;82,7
2016-10-08 06:30;80,5
2016-10-08 06:45;81,7
2016-10-08 07:00;81,85
2016-10-08 07:15;82,8
2016-10-08 07:30;80,95
2016-10-08 07:45;81,05
2016-10-08 08:00;80,55
2016-10-08 08:15;82,6
2016-10-08 08:30;81,6
2016-10-08 08:45;83,15
2016-10-08 09:00;83,75
2016-10-08 09:15;82,25
2016-10-08 09:30;44,6
2016-10-08 09:45;74,65
2016-10-08 10:00;75,05
2016-10-08 10:15;75,6
2016-10-08 10:30;75,5
2016-10-08 10:45;74,75
2016-10-08 11:00;79,8
2016-10-08 11:15;87,4
2016-10-08 11:30;92,3
2016-10-08 11:45;88,25
2016-10-08 12:00;85,95
2016-10-08 12:15;86
2016-10-08 12:30;81,7
2016-10-08 12:45;88,3
2016-10-08 13:00;84,6
2016-10-08 13:15;80,25
2016-10-08 13:30;85,65
2016-10-08 13:45;83,2
2016-10-08 14:00;83,8
2016-10-08 14:15;81,35
2016-10-08 14:30;82,85
2016-10-08 14:45;84,7
2016-10-08 15:00;86,85
2016-10-08 15:15;90,4
2016-10-08 15:30;86,05
2016-10-08 15:45;84,9
2016-10-08 16:00;87,6
2016-10-08 16:15;87,9
2016-10-08 16:30;90,55
2016-10-08 16:45;91,8
2016-10-08 17:00;89,95
2016-10-08 17:15;97
2016-10-08 17:30;104,5
2016-10-08 17:45;105,35
2016-10-08 18:00;102,6
2016-10-08 18:15;93,35
2016-10-08 18:30;94,9
2016-10-08 18:45;97
2016-10-08 19:00;95,5
2016-10-08 19:15;102
2016-10-08 19:30;104,65
2016-10-08 19:45;107,35
2016-10-08 20:00;104,15
2016-10-08 20:15;105
2016-10-08 20:30;99,65
2016-10-08 20:45;105,45
2016-10-08 21:00;106,15
2016-10-08 21:15;98,95
2016-10-08 21:30;97,9
2016-10-08 21:45;100,3
2016-10-08 22:00;96,55
2016-10-08 22:15;93,4
2016-10-08 22:30;94,65
2016-10-08 22:45;94,5
2016-10-08 23:00;92,7
2016-10-08 23:15;90,9
2016-10-08 23:30;92,1
2016-10-08 23:45;88,8
2016-10-09 00:00;90,25
2016-10-09 00:15;91,15
2016-10-09 00:30;95,75
2016-10-09 00:45;94,1
2016-10-09 01:00;97,3
2016-10-09 01:15;96,15
2016-10-09 01:30;92,55
2016-10-09 01:45;89,8
2016-10-09 02:00;86,65
2016-10-09 02:15;86,4
2016-10-09 02:30;88,3
2016-10-09 02:45;86,7
2016-10-09 03:00;87,55
2016-10-09 03:15;87,8
2016-10-09 03:30;87
2016-10-09 03:45;87,75
2016-10-09 04:00;88,1
2016-10-09 04:15;87,9
2016-10-09 04:30;87,4
2016-10-09 04:45;87,2
2016-10-09 05:00;88,15
2016-10-09 05:15;86,6
2016-10-09 05:30;85,4
2016-10-09 05:45;87,25
2016-10-09 06:00;88,2
2016-10-09 06:15;90,6
2016-10-09 06:30;95,45
2016-10-09 06:45;93,45
2016-10-09 07:00;93,7
2016-10-09 07:15;95,5
2016-10-09 07:30;89,95
2016-10-09 07:45;88,5
2016-10-09 08:00;85,7
2016-10-09 08:15;88,1
2016-10-09 08:30;85
2016-10-09 08:45;85,25
2016-10-09 09:00;84,35
2016-10-09 09:15;85,9
2016-10-09 09:30;88,7
2016-10-09 09:45;87,5
2016-10-09 10:00;90,25
2016-10-09 10:15;86,25
2016-10-09 10:30;86,15
2016-10-09 10:45;89,55
2016-10-09 11:00;96,85
2016-10-09 11:15;100,6
2016-10-09 11:30;102
2016-10-09 11:45;96,7
2016-10-09 12:00;91,8
2016-10-09 12:15;92,55
2016-10-09 12:30;89,3
2016-10-09 12:45;89,05
2016-10-09 13:00;89,75
2016-10-09 13:15;88,35
2016-10-09 13:30;89,25
2016-10-09 13:45;94,9
2016-10-09 14:00;94,5
2016-10-09 14:15;88,1
2016-10-09 14:30;91,7
2016-10-09 14:45;90,15
2016-10-09 15:00;91,5
2016-10-09 15:15;90,15
2016-10-09 15:30;96,4
2016-10-09 15:45;104,3
2016-10-09 16:00;104,35
2016-10-09 16:15;95,6
2016-10-09 16:30;96,15
2016-10-09 16:45;94,45
2016-10-09 17:00;98,55
2016-10-09 17:15;99,95
2016-10-09 17:30;100,4
2016-10-09 17:45;100,15
2016-10-09 18:00;97,15
2016-10-09 18:15;99,35
2016-10-09 18:30;95,8
2016-10-09 18:45;96,65
2016-10-09 19:00;98,1
2016-10-09 19:15;102,65
2016-10-09 19:30;102,1
2016-10-09 19:45;103,1
2016-10-09 20:00;105,8
2016-10-09 20:15;98,8
2016-10-09 20:30;102,8
2016-10-09 20:45;101,7
2016-10-09 21:00;101,9
2016-10-09 21:15;100,55
2016-10-09 21:30;104,1
2016-10-09 21:45;104,35
2016-10-09 22:00;96,25
2016-10-09 22:15;96,1
2016-10-09 22:30;96,05
2016-10-09 22:45;98,75
2016-10-09 23:00;99,7
2016-10-09 23:15;96,65
2016-10-09 23:30;96,2
2016-10-09 23:45;88,8

